This is the latest recevied weather packets stored in our database for station/object AG1T-20. If no packets are shown the sender has not sent any weather packets the latest 10 day(s).
| Time | Temp. | Humidity | Pressure | Rain* | Wind** | Luminosity | Snow |
|---|---|---|---|---|---|---|---|
| 1777869605 | 10.56° C | 48% | 1013.3 hPa | 0 mm | - | 0 W/m² | - |
| 1777869005 | 10.56° C | 45% | 1013.3 hPa | 0 mm | - | 0 W/m² | - |
| 1777868405 | 10.56° C | 48% | 1013.3 hPa | 0 mm | - | 0 W/m² | - |
| 1777867805 | 11.11° C | 43% | 1013.3 hPa | 0 mm | - | 0 W/m² | - |
| 1777867205 | 11.67° C | 43% | 1013.3 hPa | 0 mm | - | 0 W/m² | - |
| 1777866605 | 11.67° C | 43% | 1012.9 hPa | 0 mm | - | 0 W/m² | - |
| 1777866005 | 12.78° C | 39% | 1012.9 hPa | 0 mm | - | 0 W/m² | - |
| 1777865405 | 12.78° C | 47% | 1012.9 hPa | 0 mm | - | 0 W/m² | - |
| 1777864805 | 12.78° C | 38% | 1012.9 hPa | 0 mm | - | 0 W/m² | - |
| 1777864205 | 12.78° C | 42% | 1012.9 hPa | 0 mm | - | 0 W/m² | - |
| 1777863605 | 14.44° C | 35% | 1012.9 hPa | 0 mm | - | 0 W/m² | - |
| 1777863005 | 14.44° C | 34% | 1013 hPa | 0 mm | - | 0 W/m² | - |
| 1777862405 | 16.11° C | 32% | 1013 hPa | 0 mm | - | 0 W/m² | - |
| 1777861805 | 17.22° C | 31% | 1013 hPa | 0 mm | - | 2 W/m² | - |
| 1777861205 | 17.22° C | 27% | 1013 hPa | 0 mm | - | 5 W/m² | - |
| 1777860605 | 18.33° C | 25% | 1013 hPa | 0 mm | - | 8 W/m² | - |
| 1777860005 | 21.67° C | 16% | 1013 hPa | 0 mm | - | 15 W/m² | - |
| 1777859405 | 22.78° C | 15% | 1013.4 hPa | 0 mm | - | 22 W/m² | - |
| 1777858805 | 23.89° C | 14% | 1013.4 hPa | 0 mm | - | 24 W/m² | - |
| 1777858205 | 25.56° C | 14% | 1013.4 hPa | 0 mm | - | 32 W/m² | - |
| 1777857605 | 26.67° C | 13% | 1013.4 hPa | 0 mm | - | 38 W/m² | - |
| 1777857005 | 26.11° C | 13% | 1013.4 hPa | 0 mm | - | 45 W/m² | - |
| 1777856405 | 26.11° C | 13% | 1013.4 hPa | 0 mm | - | 45 W/m² | - |
| 1777855805 | 25° C | 12% | 1013.8 hPa | 0 mm | - | 53 W/m² | - |
| 1777855205 | 24.44° C | 12% | 1013.8 hPa | 0 mm | - | 65 W/m² | - |
* Rain latest hour (hover to see other rain measurements)
** Current wind speed in m/s (hover to see current wind gust speed)